Time,TemperatureF,DewpointF,PressureIn,WindDirection,WindDirectionDegrees,WindSpeedMPH,WindSpeedGustMPH,Humidity,HourlyPrecipIn,Conditions,Clouds,dailyrainin,SoftwareType,DateUTC
2013-03-03 00:02:00,13.0,10.0,30.09,NNE,23,0.0,0.0,86,0.00,,,0.00,,2013-03-03 06:02:00,
2013-03-03 00:11:00,13.0,10.0,30.09,NNE,23,0.0,0.0,86,0.00,,,0.00,,2013-03-03 06:11:00,
2013-03-03 00:21:00,13.0,10.0,30.09,NNE,23,0.0,0.0,87,0.00,,,0.00,,2013-03-03 06:21:00,
2013-03-03 00:31:00,12.0,9.0,30.08,NNE,23,0.0,0.0,87,0.00,,,0.00,,2013-03-03 06:31:00,
2013-03-03 00:42:00,12.0,9.0,30.08,NNE,23,0.0,0.0,87,0.00,,,0.00,,2013-03-03 06:42:00,
2013-03-03 00:52:00,12.0,9.0,30.08,NNE,23,0.0,0.0,87,0.00,,,0.00,,2013-03-03 06:52:00,
2013-03-03 01:01:00,12.0,9.0,30.08,NNE,23,0.0,0.0,87,0.00,,,0.00,,2013-03-03 07:01:00,
2013-03-03 01:11:00,12.0,9.0,30.08,NNE,23,0.0,0.0,87,0.00,,,0.00,,2013-03-03 07:11:00,
2013-03-03 01:21:00,12.0,9.0,30.08,NNE,23,0.0,0.0,87,0.00,,,0.00,,2013-03-03 07:21:00,
2013-03-03 01:31:00,11.0,8.0,30.08,NNE,23,0.0,0.0,87,0.00,,,0.00,,2013-03-03 07:31:00,
2013-03-03 01:42:00,11.0,8.0,30.08,NNE,23,0.0,0.0,87,0.00,,,0.00,,2013-03-03 07:42:00,
2013-03-03 01:52:00,11.0,8.0,30.08,NNE,23,0.0,0.0,88,0.00,,,0.00,,2013-03-03 07:52:00,
2013-03-03 02:01:00,11.0,8.0,30.08,NNE,23,0.0,0.0,88,0.00,,,0.00,,2013-03-03 08:01:00,
2013-03-03 02:11:00,11.0,8.0,30.08,NNE,23,0.0,0.0,88,0.00,,,0.00,,2013-03-03 08:11:00,
2013-03-03 02:21:00,11.0,8.0,30.08,NNE,23,0.0,0.0,88,0.00,,,0.00,,2013-03-03 08:21:00,
2013-03-03 02:31:00,10.0,7.0,30.07,NNE,23,0.0,0.0,89,0.00,,,0.00,,2013-03-03 08:31:00,
2013-03-03 02:41:00,10.0,7.0,30.07,NNE,23,0.0,0.0,89,0.00,,,0.00,,2013-03-03 08:41:00,
2013-03-03 02:54:00,10.0,7.0,30.06,NNE,23,0.0,0.0,89,0.00,,,0.00,,2013-03-03 08:54:00,
2013-03-03 03:01:00,10.0,7.0,30.06,NNE,23,0.0,1.0,88,0.00,,,0.00,,2013-03-03 09:01:00,
2013-03-03 03:11:00,10.0,7.0,30.06,NNE,23,0.0,1.0,88,0.00,,,0.00,,2013-03-03 09:11:00,
2013-03-03 03:21:00,9.0,6.0,30.05,NNE,23,0.0,0.0,88,0.00,,,0.00,,2013-03-03 09:21:00,
2013-03-03 03:32:00,9.0,6.0,30.05,NNE,23,0.0,0.0,88,0.00,,,0.00,,2013-03-03 09:32:00,
2013-03-03 03:41:00,9.0,6.0,30.05,NNE,23,0.0,0.0,88,0.00,,,0.00,,2013-03-03 09:41:00,
2013-03-03 03:52:00,9.0,6.0,30.05,NNE,23,0.0,0.0,88,0.00,,,0.00,,2013-03-03 09:52:00,
2013-03-03 04:01:00,9.0,6.0,30.05,NNE,23,0.0,0.0,89,0.00,,,0.00,,2013-03-03 10:01:00,
2013-03-03 04:11:00,9.0,6.0,30.05,NNE,23,0.0,0.0,89,0.00,,,0.00,,2013-03-03 10:11:00,
2013-03-03 04:21:00,9.0,6.0,30.05,NNE,23,0.0,0.0,89,0.00,,,0.00,,2013-03-03 10:21:00,
2013-03-03 04:32:00,8.0,5.0,30.04,NNE,23,0.0,0.0,89,0.00,,,0.00,,2013-03-03 10:32:00,
2013-03-03 04:42:00,8.0,5.0,30.04,NNE,23,0.0,0.0,89,0.00,,,0.00,,2013-03-03 10:42:00,
2013-03-03 04:52:00,8.0,5.0,30.05,NNE,23,0.0,0.0,89,0.00,,,0.00,,2013-03-03 10:52:00,
2013-03-03 05:01:00,8.0,5.0,30.05,NNE,23,0.0,0.0,89,0.00,,,0.00,,2013-03-03 11:01:00,
2013-03-03 05:11:00,8.0,5.0,30.05,NNE,23,0.0,0.0,89,0.00,,,0.00,,2013-03-03 11:11:00,
2013-03-03 05:21:00,8.0,5.0,30.05,NNE,23,0.0,0.0,89,0.00,,,0.00,,2013-03-03 11:21:00,
2013-03-03 05:32:00,7.0,4.0,30.06,NNE,23,0.0,0.0,89,0.00,,,0.00,,2013-03-03 11:32:00,
2013-03-03 05:42:00,7.0,4.0,30.06,NNE,23,0.0,0.0,89,0.00,,,0.00,,2013-03-03 11:42:00,
2013-03-03 05:52:00,7.0,4.0,30.06,NNE,23,0.0,0.0,89,0.00,,,0.00,,2013-03-03 11:52:00,
2013-03-03 06:01:00,7.0,4.0,30.06,NNE,23,0.0,0.0,89,0.00,,,0.00,,2013-03-03 12:01:00,
2013-03-03 06:11:00,7.0,4.0,30.06,NNE,23,0.0,0.0,89,0.00,,,0.00,,2013-03-03 12:11:00,
2013-03-03 06:21:00,6.0,3.0,30.06,NNE,23,0.0,0.0,88,0.00,,,0.00,,2013-03-03 12:21:00,
2013-03-03 06:32:00,6.0,3.0,30.06,NNE,23,0.0,0.0,88,0.00,,,0.00,,2013-03-03 12:32:00,
2013-03-03 06:42:00,6.0,3.0,30.06,NNE,23,0.0,0.0,88,0.00,,,0.00,,2013-03-03 12:42:00,
2013-03-03 06:53:00,6.0,3.0,30.06,NNE,23,0.0,0.0,89,0.00,,,0.00,,2013-03-03 12:53:00,
2013-03-03 07:01:00,6.0,3.0,30.06,NNE,23,0.0,0.0,88,0.00,,,0.00,,2013-03-03 13:01:00,
2013-03-03 07:11:00,6.0,3.0,30.06,NNE,23,0.0,0.0,88,0.00,,,0.00,,2013-03-03 13:11:00,
2013-03-03 07:22:00,6.0,3.0,30.06,NNE,23,0.0,0.0,89,0.00,,,0.00,,2013-03-03 13:22:00,
2013-03-03 07:32:00,7.0,4.0,30.06,NNE,23,0.0,0.0,89,0.00,,,0.00,,2013-03-03 13:32:00,
2013-03-03 07:42:00,7.0,4.0,30.06,NNE,23,0.0,0.0,89,0.00,,,0.00,,2013-03-03 13:42:00,
2013-03-03 07:51:00,8.0,6.0,30.05,NNE,23,0.0,0.0,90,0.00,,,0.00,,2013-03-03 13:51:00,
2013-03-03 08:02:00,9.0,7.0,30.06,NNE,23,0.0,1.0,91,0.00,,,0.00,,2013-03-03 14:02:00,
2013-03-03 08:11:00,9.0,7.0,30.06,NNE,23,0.0,1.0,91,0.00,,,0.00,,2013-03-03 14:11:00,
2013-03-03 08:21:00,10.0,8.0,30.06,NNE,28,0.0,3.0,91,0.00,,,0.00,,2013-03-03 14:21:00,
2013-03-03 08:32:00,11.0,9.0,30.06,NNE,28,0.0,0.0,92,0.00,,,0.00,,2013-03-03 14:32:00,
2013-03-03 08:42:00,11.0,9.0,30.06,NNE,28,0.0,0.0,92,0.00,,,0.00,,2013-03-03 14:42:00,
2013-03-03 08:52:00,13.0,11.0,30.07,NNE,28,1.0,2.0,91,0.00,,,0.00,,2013-03-03 14:52:00,
2013-03-03 09:01:00,15.0,13.0,30.07,NNE,28,0.0,2.0,90,0.00,,,0.00,,2013-03-03 15:01:00,
2013-03-03 09:11:00,15.0,13.0,30.07,NNE,28,0.0,2.0,90,0.00,,,0.00,,2013-03-03 15:11:00,
2013-03-03 09:22:00,17.0,14.0,30.07,NNE,28,0.0,1.0,87,0.00,,,0.00,,2013-03-03 15:22:00,
2013-03-03 09:32:00,17.0,13.0,30.07,NNE,28,0.0,2.0,84,0.00,,,0.00,,2013-03-03 15:32:00,
2013-03-03 09:42:00,17.0,13.0,30.07,NNE,28,0.0,2.0,84,0.00,,,0.00,,2013-03-03 15:42:00,
2013-03-03 09:52:00,18.0,13.0,30.06,NNE,28,0.0,2.0,82,0.00,,,0.00,,2013-03-03 15:52:00,
2013-03-03 10:01:00,19.0,12.0,30.06,NE,36,1.0,2.0,73,0.00,,,0.00,,2013-03-03 16:01:00,
2013-03-03 10:12:00,19.0,12.0,30.06,NE,36,1.0,2.0,73,0.00,,,0.00,,2013-03-03 16:12:00,
2013-03-03 10:21:00,20.0,12.0,30.06,SE,134,0.0,4.0,72,0.00,,,0.00,,2013-03-03 16:21:00,
2013-03-03 10:32:00,22.0,14.0,30.06,SE,124,2.0,4.0,70,0.00,,,0.00,,2013-03-03 16:32:00,
2013-03-03 10:42:00,22.0,14.0,30.06,SE,124,2.0,4.0,70,0.00,,,0.00,,2013-03-03 16:42:00,
2013-03-03 10:52:00,22.0,14.0,30.06,SE,124,0.0,2.0,70,0.00,,,0.00,,2013-03-03 16:52:00,
2013-03-03 11:01:00,24.0,15.0,30.06,SE,124,1.0,2.0,67,0.00,,,0.00,,2013-03-03 17:01:00,
2013-03-03 11:11:00,24.0,14.0,30.06,ESE,122,1.0,4.0,66,0.00,,,0.00,,2013-03-03 17:11:00,
2013-03-03 11:22:00,24.0,14.0,30.06,ESE,122,1.0,4.0,66,0.00,,,0.00,,2013-03-03 17:22:00,
2013-03-03 11:32:00,25.0,14.0,30.06,ESE,122,1.0,2.0,63,0.00,,,0.00,,2013-03-03 17:32:00,
2013-03-03 11:42:00,25.0,14.0,30.06,ESE,122,1.0,2.0,63,0.00,,,0.00,,2013-03-03 17:42:00,
2013-03-03 11:52:00,25.0,12.0,30.05,East,88,2.0,4.0,58,0.00,,,0.00,,2013-03-03 17:52:00,
2013-03-03 12:01:00,26.0,12.0,30.05,ENE,65,2.0,4.0,56,0.00,,,0.00,,2013-03-03 18:01:00,
2013-03-03 12:11:00,26.0,12.0,30.05,ENE,65,2.0,4.0,56,0.00,,,0.00,,2013-03-03 18:11:00,
2013-03-03 12:21:00,27.0,11.0,30.05,ENE,70,0.0,4.0,51,0.00,,,0.00,,2013-03-03 18:21:00,
2013-03-03 12:32:00,28.0,13.0,30.04,ENE,60,1.0,3.0,52,0.00,,,0.00,,2013-03-03 18:32:00,
2013-03-03 12:42:00,28.0,13.0,30.04,ENE,60,1.0,3.0,52,0.00,,,0.00,,2013-03-03 18:42:00,
2013-03-03 12:52:00,29.0,11.0,30.03,ENE,77,1.0,4.0,46,0.00,,,0.00,,2013-03-03 18:52:00,
2013-03-03 13:01:00,30.0,11.0,30.03,ENE,69,0.0,4.0,45,0.00,,,0.00,,2013-03-03 19:01:00,
2013-03-03 13:11:00,30.0,11.0,30.03,ENE,69,0.0,4.0,45,0.00,,,0.00,,2013-03-03 19:11:00,
2013-03-03 13:22:00,31.0,12.0,30.03,ENE,71,1.0,4.0,44,0.00,,,0.00,,2013-03-03 19:22:00,
2013-03-03 13:32:00,32.0,13.0,30.02,NE,49,0.0,3.0,45,0.00,,,0.00,,2013-03-03 19:32:00,
2013-03-03 13:42:00,32.0,13.0,30.02,NE,49,0.0,3.0,45,0.00,,,0.00,,2013-03-03 19:42:00,
2013-03-03 13:51:00,32.0,14.0,30.01,NE,35,3.0,5.0,46,0.00,,,0.00,,2013-03-03 19:51:00,
2013-03-03 14:01:00,32.0,13.0,30.01,SE,130,2.0,5.0,45,0.00,,,0.00,,2013-03-03 20:01:00,
2013-03-03 14:11:00,32.0,13.0,30.01,SE,130,2.0,5.0,45,0.00,,,0.00,,2013-03-03 20:11:00,
2013-03-03 14:21:00,32.0,13.0,30.01,NE,52,0.0,5.0,45,0.00,,,0.00,,2013-03-03 20:21:00,
2013-03-03 14:32:00,32.0,14.0,30.01,NE,55,2.0,3.0,46,0.00,,,0.00,,2013-03-03 20:32:00,
2013-03-03 14:42:00,32.0,14.0,30.01,NE,55,2.0,3.0,46,0.00,,,0.00,,2013-03-03 20:42:00,
2013-03-03 14:53:00,32.0,13.0,30.00,ENE,61,1.0,4.0,45,0.00,,,0.00,,2013-03-03 20:53:00,
2013-03-03 15:02:00,32.0,14.0,30.00,ENE,61,2.0,4.0,46,0.00,,,0.00,,2013-03-03 21:02:00,
2013-03-03 15:11:00,32.0,14.0,30.00,ENE,61,2.0,4.0,46,0.00,,,0.00,,2013-03-03 21:11:00,
2013-03-03 15:22:00,32.0,14.0,30.00,ENE,61,2.0,4.0,47,0.00,,,0.00,,2013-03-03 21:22:00,
2013-03-03 15:32:00,32.0,15.0,30.00,ENE,61,2.0,4.0,48,0.00,,,0.00,,2013-03-03 21:32:00,
2013-03-03 15:42:00,32.0,15.0,30.00,ENE,61,2.0,4.0,48,0.00,,,0.00,,2013-03-03 21:42:00,
2013-03-03 15:52:00,32.0,15.0,29.99,ENE,67,5.0,5.0,50,0.00,,,0.00,,2013-03-03 21:52:00,
2013-03-03 16:01:00,31.0,17.0,29.99,ENE,69,5.0,5.0,55,0.00,,,0.00,,2013-03-03 22:01:00,
2013-03-03 16:11:00,31.0,17.0,29.99,ENE,69,5.0,5.0,55,0.00,,,0.00,,2013-03-03 22:11:00,
2013-03-03 16:22:00,31.0,17.0,29.99,ENE,69,2.0,4.0,56,0.00,,,0.00,,2013-03-03 22:22:00,
2013-03-03 16:32:00,31.0,18.0,30.00,ENE,69,1.0,4.0,57,0.00,,,0.00,,2013-03-03 22:32:00,
2013-03-03 16:42:00,31.0,18.0,30.00,ENE,69,1.0,4.0,57,0.00,,,0.00,,2013-03-03 22:42:00,
2013-03-03 16:52:00,31.0,18.0,30.00,ENE,70,2.0,4.0,57,0.00,,,0.00,,2013-03-03 22:52:00,
2013-03-03 17:01:00,31.0,17.0,30.00,SSE,147,4.0,6.0,55,0.00,,,0.00,,2013-03-03 23:01:00,
2013-03-03 17:11:00,31.0,17.0,30.00,SSE,147,4.0,6.0,55,0.00,,,0.00,,2013-03-03 23:11:00,
2013-03-03 17:21:00,30.0,15.0,29.99,SE,140,2.0,4.0,54,0.00,,,0.00,,2013-03-03 23:21:00,
2013-03-03 17:32:00,29.0,15.0,29.99,SE,143,2.0,5.0,55,0.00,,,0.00,,2013-03-03 23:32:00,
2013-03-03 17:42:00,29.0,15.0,29.99,SE,143,2.0,5.0,55,0.00,,,0.00,,2013-03-03 23:42:00,
2013-03-03 17:52:00,28.0,15.0,29.98,SE,143,0.0,2.0,57,0.00,,,0.00,,2013-03-03 23:52:00,
2013-03-03 18:01:00,27.0,13.0,29.98,SE,143,1.0,4.0,56,0.00,,,0.00,,2013-03-04 00:01:00,
2013-03-03 18:11:00,27.0,13.0,29.98,SE,143,1.0,4.0,56,0.00,,,0.00,,2013-03-04 00:11:00,
2013-03-03 18:21:00,27.0,15.0,29.98,SE,143,0.0,1.0,59,0.00,,,0.00,,2013-03-04 00:21:00,
2013-03-03 18:32:00,26.0,15.0,29.98,SE,143,0.0,2.0,62,0.00,,,0.00,,2013-03-04 00:32:00,
2013-03-03 18:42:00,26.0,15.0,29.98,SE,143,0.0,2.0,62,0.00,,,0.00,,2013-03-04 00:42:00,
2013-03-03 18:52:00,25.0,15.0,29.98,SE,143,0.0,1.0,65,0.00,,,0.00,,2013-03-04 00:52:00,
2013-03-03 19:01:00,25.0,15.0,29.98,SE,143,0.0,1.0,65,0.00,,,0.00,,2013-03-04 01:01:00,
2013-03-03 19:11:00,25.0,15.0,29.98,SE,143,0.0,1.0,65,0.00,,,0.00,,2013-03-04 01:11:00,
2013-03-03 19:21:00,24.0,15.0,29.99,SE,143,0.0,0.0,67,0.00,,,0.00,,2013-03-04 01:21:00,
2013-03-03 19:32:00,24.0,14.0,30.00,SE,143,0.0,0.0,66,0.00,,,0.00,,2013-03-04 01:32:00,
2013-03-03 19:42:00,24.0,14.0,30.00,SE,143,0.0,0.0,66,0.00,,,0.00,,2013-03-04 01:42:00,
2013-03-03 19:52:00,24.0,15.0,29.99,SE,143,0.0,0.0,67,0.00,,,0.00,,2013-03-04 01:52:00,
2013-03-03 20:01:00,23.0,14.0,29.99,SE,143,0.0,0.0,69,0.00,,,0.00,,2013-03-04 02:01:00,
2013-03-03 20:11:00,23.0,14.0,29.99,SE,143,0.0,0.0,69,0.00,,,0.00,,2013-03-04 02:11:00,
2013-03-03 20:22:00,22.0,14.0,30.00,SE,143,0.0,0.0,70,0.00,,,0.00,,2013-03-04 02:22:00,
2013-03-03 20:32:00,22.0,14.0,30.00,SE,143,0.0,0.0,72,0.00,,,0.00,,2013-03-04 02:32:00,
2013-03-03 20:42:00,22.0,14.0,30.00,SE,143,0.0,0.0,72,0.00,,,0.00,,2013-03-04 02:42:00,
2013-03-03 20:52:00,22.0,14.0,30.00,SE,143,0.0,1.0,70,0.00,,,0.00,,2013-03-04 02:52:00,
2013-03-03 21:01:00,22.0,13.0,30.00,SE,143,0.0,0.0,68,0.00,,,0.00,,2013-03-04 03:01:00,
2013-03-03 21:11:00,22.0,13.0,30.00,SE,143,0.0,0.0,68,0.00,,,0.00,,2013-03-04 03:11:00,
2013-03-03 21:21:00,21.0,12.0,30.00,SE,143,0.0,1.0,69,0.00,,,0.00,,2013-03-04 03:21:00,
2013-03-03 21:32:00,21.0,12.0,30.00,SE,143,0.0,1.0,69,0.00,,,0.00,,2013-03-04 03:32:00,
2013-03-03 21:42:00,20.0,11.0,30.00,SE,143,0.0,0.0,69,0.00,,,0.00,,2013-03-04 03:42:00,
2013-03-03 21:52:00,20.0,11.0,30.00,SE,143,0.0,0.0,69,0.00,,,0.00,,2013-03-04 03:52:00,
2013-03-03 22:01:00,21.0,12.0,30.00,SE,143,0.0,0.0,69,0.00,,,0.00,,2013-03-04 04:01:00,
2013-03-03 22:11:00,21.0,12.0,30.00,SE,143,0.0,0.0,69,0.00,,,0.00,,2013-03-04 04:11:00,
2013-03-03 22:22:00,21.0,12.0,30.00,SE,143,0.0,0.0,69,0.00,,,0.00,,2013-03-04 04:22:00,
2013-03-03 22:32:00,21.0,12.0,30.01,SE,143,0.0,0.0,69,0.00,,,0.00,,2013-03-04 04:32:00,
2013-03-03 22:42:00,21.0,12.0,30.01,SE,143,0.0,0.0,69,0.00,,,0.00,,2013-03-04 04:42:00,
2013-03-03 22:52:00,20.0,12.0,30.01,SE,143,0.0,1.0,70,0.00,,,0.00,,2013-03-04 04:52:00,
2013-03-03 23:01:00,20.0,12.0,29.99,ESE,107,2.0,2.0,71,0.00,,,0.00,,2013-03-04 05:01:00,
2013-03-03 23:11:00,20.0,12.0,29.99,ESE,107,2.0,2.0,71,0.00,,,0.00,,2013-03-04 05:11:00,
2013-03-03 23:22:00,20.0,12.0,30.00,East,96,0.0,4.0,71,0.00,,,0.00,,2013-03-04 05:22:00,
2013-03-03 23:32:00,20.0,12.0,30.00,East,86,2.0,3.0,70,0.00,,,0.00,,2013-03-04 05:32:00,
2013-03-03 23:42:00,20.0,12.0,30.00,East,86,2.0,3.0,70,0.00,,,0.00,,2013-03-04 05:42:00,
2013-03-03 23:52:00,20.0,12.0,30.01,East,86,0.0,4.0,70,0.00,,,0.00,,2013-03-04 05:52:00,